Regional Weather Roundup
Issued by NWS

Home | Current Version | Previous Version | Graphics & Text | Print | Product List | Glossary On
Versions: 1 2 3 4 5 6 7 8 9 10 11 12 13 14 15 16 17 18 19 20 21 22 23 24 25 26 27 28 29 30 31 32 33 34 35 36 37 38 39 40 41 42 43 44 45 46 47 48 49 50
000
ASUS43 KOAX 222202
RWRNE

WEATHER ROUNDUP FOR NEBRASKA
NATIONAL WEATHER SERVICE OMAHA NE
400 PM CST SUN JAN 22 2017

NOTES: SATELLITE DATA IS BEING USED TO AUGMENT CLOUD COVER ABOVE
       12000 FEET.
       "FAIR" INDICATES FEW OR NO CLOUDS BELOW 12,000 FEET WITH NO
       SIGNIFICANT WEATHER AND/OR OBSTRUCTIONS TO VISIBILITY.

  * THESE STATIONS DO NOT REPORT WEATHER SUCH AS RAIN...SNOW OR FOG.

NEZ001>004-019>022-054>056-222300-
NEBRASKA PANHANDLE

CITY           SKY/WX    TMP DP  RH WIND       PRES   REMARKS
SCOTTSBLUFF    SUNNY     45  18  34 NW13      29.87F
ALLIANCE       SUNNY     45  22  40 W15       29.85S
CHADRON        SUNNY     39  28  64 NW9       29.87R WCI  33
KIMBALL        SUNNY     43  19  38 NW17G24   29.88F
SIDNEY         SUNNY     45  19  35 NW20G26   29.88S
$$

NEZ057>060-069>072-079>082-222300-
SOUTHWEST NEBRASKA

CITY           SKY/WX    TMP DP  RH WIND       PRES   REMARKS
NORTH PLATTE   SUNNY     50  27  40 NW12      29.85R
IMPERIAL       SUNNY     48  25  40 NW15      29.88R
LEXINGTON      SUNNY     50  29  44 NW8       29.84S
MCCOOK         SUNNY     50  30  46 NW13      29.87R
OGALLALA       SUNNY     48  30  48 NW10      29.87R
$$

NEZ005>010-023>029-035>040-094-222300-
NORTH CENTRAL NEBRASKA

CITY           SKY/WX    TMP DP  RH WIND       PRES   REMARKS
VALENTINE      SUNNY     41  24  51 NW14      29.85R
AINSWORTH      SUNNY     43  28  54 NW12      29.84R
BROKEN BOW     SUNNY     48  31  51 NW10G21   29.82S
O`NEILL        SUNNY     45  27  49 NW13      29.83R
ORD            SUNNY     48  30  49 NW9       29.82R
THEDFORD       SUNNY     48  26  42 NW9       29.85R
$$

NEZ041-046>049-061>064-073>077-083>087-222300-
SOUTH CENTRAL NEBRASKA

CITY           SKY/WX    TMP DP  RH WIND       PRES   REMARKS
GRAND ISLAND   SUNNY     48  31  51 N9        29.83S
AURORA         SUNNY     45  32  60 N10       29.83R
HASTINGS       SUNNY     48  31  51 N7        29.84R
HEBRON         SUNNY     44  33  64 N10G18    29.84R
HOLDREGE       SUNNY     49  30  48 NW8       29.85R
KEARNEY *      SUNNY     48  28  46 N12       29.84R
YORK           SUNNY     43  34  70 N9        29.83R
$$

NEZ011>018-030>034-042>045-222300-
NORTHEAST NEBRASKA

CITY           SKY/WX    TMP DP  RH WIND       PRES   REMARKS
NORFOLK        SUNNY     42  29  59 NW10G17   29.82R
ALBION         SUNNY     45  -2  14 NW12      29.82S
BLAIR          PTSUNNY   40  35  83 NW12      29.81R WCI  32
FREMONT        CLOUDY    38  34  84 NW9       29.83S WCI  32
TEKAMAH        SUNNY     39  34  82 NW13      29.82S WCI  31
WAYNE          SUNNY     40  33  76 NW10      29.82R WCI  33
$$

NEZ050>053-065>068-078-088>093-222300-
SOUTHEAST NEBRASKA

CITY           SKY/WX    TMP DP  RH WIND       PRES   REMARKS
LINCOLN        MOSUNNY   39  32  76 NW10      29.85R WCI  32
OMAHA EPPLEY   CLOUDY    40  33  76 NW10      29.81S WCI  33
BEATRICE       PTSUNNY   38  34  85 NW10      29.84R WCI  31
FALLS CITY     CLOUDY    39  34  82 NW12      29.80R WCI  32
NEBRASKA CITY  CLOUDY    37  33  85 N14       29.81S WCI  28
PLATTSMOUTH    CLOUDY    38  32  79 NW9       29.81R WCI  31
$$

NEZ044-045-051>053-067-222300-
OMAHA AREA

CITY           SKY/WX    TMP DP  RH WIND       PRES   REMARKS
OMAHA EPPLEY   CLOUDY    40  33  76 NW10      29.81S WCI  33
BLAIR          PTSUNNY   40  35  83 NW12      29.81R WCI  32
FREMONT        CLOUDY    38  34  84 NW9       29.83S WCI  32
MILLARD        CLOUDY    42  36  79 NW10      29.82S
OFFUTT AFB     CLOUDY    40  39  96 N9        29.81S WCI  34
PLATTSMOUTH    CLOUDY    38  32  79 NW9       29.81R WCI  31
WAHOO          CLOUDY    37  32  83 NW9       29.83S WCI  30
$$



USA.gov is the U.S. government's official web portal to all federal, state and local government web resources and services.